Weather History for New York, NY

Change the Weather History Date:

Sunday, March 2, 2014

  Actual Average Record
Temperature  
Mean Temperature 36 °F 38 °F  
Max Temperature 39 °F 46 °F 67 °F (2004)
Min Temperature 32 °F 31 °F 13 °F (1950)
Degree Days  
Heating Degree Days 29 27  
Month to date heating degree days 64 54  
Since 1 July heating degree days 3721 3483  
Cooling Degree Days 0 0  
Month to date cooling degree days 0 0  
Year to date cooling degree days 0 0  
Moisture  
Dew Point 18 °F    
Average Humidity 46    
Maximum Humidity 56    
Minimum Humidity 35    
Precipitation  
Precipitation T in 0.11 in 2.44 in (2007)
Month to date precipitation T 0.23  
Year to date precipitation 7.29 6.16  
Snow  
Snow T in 0.30 in 5.20 in (2009)
Month to date snowfall T 0.5  
Since 1 July snowfall 52.3 22.5  
Snow Depth 0.00 in    
Sea Level Pressure  
Sea Level Pressure 30.05 in    
Wind  
Wind Speed 8 mph (WNW)    
Max Wind Speed 15 mph    
Max Gust Speed 20 mph    
Visibility 10 miles    
Events      
T = Trace of Precipitation, MM = Missing Value Source: NWS Daily Summary

Daily Weather History Graph

Daily Weather History Graph

Search for Another Location

Airport:

Trip Planner

Search our weather history database for the weather conditions in past years. The results will help you decide how hot, cold, wet, or windy it might be!

Date:

Astronomy

Mar. 02, 2014 Rise Set
Actual Time 6:28 AM EST 5:47 PM EST
Civil Twilight 6:00 AM EST 6:15 PM EST
Nautical Twilight 5:28 AM EST 6:47 PM EST
Astronomical Twilight 4:57 AM EST 7:18 PM EST
Moon 6:56 AM EST (3/2) 7:42 PM EST (3/2)
Length of Visible Light 12h 14m
Length of Day
11h 19m
Waxing Crescent, 3% of the Moon is Illuminated
Mar 2
Waxing Crescent
Mar 8
First Quarter
Mar 16
Full
Mar 23
Last Quarter
Mar 30
New

Hourly Weather History & Observations

Time (EST) Temp. Windchill Dew Point Humidity Pressure Visibility Wind Dir Wind Speed Gust Speed Precip Events Conditions
12:51 AM 36.0 °F 30.3 °F 12.9 °F 39% 30.13 in 10.0 mi SSW 6.9 mph - N/A   Scattered Clouds
1:51 AM 36.0 °F 29.6 °F 15.1 °F 43% 30.12 in 10.0 mi SW 8.1 mph - N/A   Mostly Cloudy
2:51 AM 35.1 °F 27.4 °F 14.0 °F 42% 30.10 in 10.0 mi SSW 10.4 mph - N/A   Mostly Cloudy
3:51 AM 36.0 °F 28.5 °F 15.1 °F 43% 30.09 in 10.0 mi SW 10.4 mph - N/A   Overcast
4:51 AM 35.1 °F 27.4 °F 18.0 °F 50% 30.08 in 10.0 mi SW 10.4 mph - N/A   Overcast
5:51 AM 36.0 °F 30.3 °F 18.0 °F 48% 30.05 in 10.0 mi SSW 6.9 mph - N/A   Overcast
6:51 AM 37.0 °F 31.0 °F 17.1 °F 44% 30.08 in 10.0 mi WSW 8.1 mph - N/A   Mostly Cloudy
7:51 AM 36.0 °F 31.1 °F 18.0 °F 48% 30.09 in 10.0 mi West 5.8 mph - N/A   Overcast
8:51 AM 36.0 °F - 18.0 °F 48% 30.08 in 10.0 mi Calm Calm - N/A   Overcast
9:51 AM 37.9 °F - 17.1 °F 43% 30.08 in 10.0 mi Calm Calm - N/A   Overcast
10:51 AM 37.0 °F 31.6 °F 19.9 °F 50% 30.07 in 10.0 mi NW 6.9 mph - N/A   Overcast
11:51 AM 37.9 °F 32.7 °F 19.9 °F 48% 30.06 in 10.0 mi NW 6.9 mph - N/A   Overcast
12:51 PM 39.0 °F 34.8 °F 19.9 °F 46% 30.01 in 10.0 mi NNW 5.8 mph - N/A   Overcast
1:51 PM 37.9 °F 32.1 °F 21.0 °F 51% 29.98 in 10.0 mi NNW 8.1 mph - N/A   Overcast
2:51 PM 37.9 °F 32.7 °F 21.9 °F 53% 30.00 in 10.0 mi NNW 6.9 mph - 0.00 in   Overcast
3:51 PM 37.9 °F 32.1 °F 21.0 °F 51% 30.00 in 10.0 mi NNE 8.1 mph - N/A   Overcast
4:51 PM 37.9 °F 31.5 °F 21.0 °F 51% 30.01 in 10.0 mi WNW 9.2 mph - N/A   Overcast
5:51 PM 36.0 °F 28.5 °F 21.0 °F 55% 30.02 in 10.0 mi NW 10.4 mph - 0.00 in   Overcast
6:51 PM 37.0 °F 29.8 °F 18.0 °F 46% 30.02 in 10.0 mi NNW 10.4 mph - N/A   Overcast
7:51 PM 36.0 °F 29.0 °F 18.0 °F 48% 30.01 in 10.0 mi NNW 9.2 mph - N/A   Overcast
8:51 PM 36.0 °F 29.0 °F 15.1 °F 43% 30.02 in 10.0 mi North 9.2 mph - N/A   Overcast
9:51 PM 35.1 °F 27.9 °F 15.1 °F 44% 30.01 in 10.0 mi NW 9.2 mph - N/A   Overcast
10:51 PM 34.0 °F 25.0 °F 16.0 °F 48% 30.01 in 10.0 mi NNW 12.7 mph - N/A   Overcast
11:51 PM 33.1 °F 24.9 °F 16.0 °F 50% 30.01 in 10.0 mi North 10.4 mph - N/A   Overcast